QPF
0.00 0.00 0.00 0.00 0.00 0.00 0.00 0.00 0.00 0.00 0.00 0.00 0.00 0.00 0.00 0.00 0.00 0.00 0.00 0.00 0.00 0.00 0.00 0.00 0.00 0.00 0.00 0.00 0.00 0.00 0.00 0.00 0.00 0.00 0.00 0.01 0.00 0.00 0.00 0.00 0.00 0.00 0.00
0.00 0.00 0.00 0.00 0.00 0.00 0.00 0.00 0.00 0.00 0.00 0.00 0.00 0.00 0.00 0.00 0.00 0.00 0.00 0.00 0.00 0.00 0.00 0.00 0.00 0.00 0.00 0.00 0.00 0.00 0.00 0.00 0.00 0.00 0.00 0.00 0.00 0.00 0.00 0.00 0.00 0.00 0.00
0.00 0.00 0.00 0.00 0.00 0.00 0.00 0.00 0.00 0.00 0.00 0.00 0.00 0.00 0.00 0.00 0.00 0.00 0.00 0.00 0.00 0.00 0.00 0.00 0.00 0.00 0.00 0.00 0.00 0.00 0.00 0.00 0.00 0.00 0.00 0.00 0.00 0.00 0.00 0.00 0.00 0.00 0.00
0.00 0.00 0.00 0.00 0.00 0.00 0.00 0.00 0.00 0.00 0.00 0.00 0.00 0.00 0.00 0.00 0.00 0.00 0.00 0.00 0.00 0.00 0.00 0.00 0.00 0.00 0.00 0.00 0.00 0.00 0.00 0.00 0.00 0.00 0.00 0.00 0.00 0.00 0.01 0.00 0.00 0.00 0.00
0.00 0.00 0.00 0.00 0.00 0.00 0.00 0.00 0.00 0.00 0.00 0.01 0.01 0.00 0.00 0.00 0.00 0.00 0.00 0.00 0.00 0.00 0.00 0.00 0.00 0.00 0.00 0.00 0.00 0.00 0.00 0.00 0.00 0.00 0.00 0.00 0.00 0.00 0.00 0.00 0.00 0.00 0.00
0.00 0.00 0.00 0.00 0.00 0.00 0.00 0.00 0.00 0.00 0.00 0.01 0.00 0.00 0.00 0.00 0.00 0.00 0.00 0.00 0.00 0.00 0.00 0.00 0.00 0.00 0.00 0.00 0.00 0.00 0.00 0.00 0.00 0.00 0.00 0.00 0.00 0.00 0.00 0.00 0.00 0.00 0.00
0.00 0.00 0.00 0.00 0.00 0.00 0.00 0.00 0.00 0.00 0.00 0.00 0.00 0.00 0.00 0.00 0.00 0.00 0.00 0.00 0.00 0.00 0.00 0.00 0.00 0.00 0.00 0.00 0.00 0.00 0.00 0.00 0.00 0.00 0.00 0.00 0.00 0.00 0.00 0.00 0.00 0.00 0.00
0.00 0.00 0.00 0.00 0.00 0.00 0.00 0.00 0.00 0.00 0.00 0.01 0.00 0.00 0.00 0.00 0.00 0.00 0.00 0.00 0.00 0.00 0.00 0.00 0.00 0.00 0.00 0.00 0.00 0.00 0.00 0.00 0.00 0.00 0.00 0.00 0.00 0.00 0.00 0.00 0.00 0.00 0.00
0.00 0.00 0.00 0.00 0.00 0.00 0.00 0.00 0.00 0.00 0.00 0.00 0.00 0.00 0.00 0.00 0.00 0.00 0.00 0.00 0.00 0.00 0.00 0.00 0.00 0.00 0.00 0.00 0.00 0.00 0.00 0.00 0.00 0.00 0.00 0.00 0.00 0.00 0.00 0.00 0.00 0.00 0.00
0.00 0.00 0.00 0.00 0.00 0.00 0.00 0.00 0.00 0.00 0.00 0.00 0.00 0.00 0.00 0.00 0.00 0.00 0.00 0.00 0.00 0.00 0.00 0.00 0.00 0.00 0.00 0.00 0.00 0.00 0.00 0.00 0.00 0.00 0.00 0.00 0.00 0.00 0.00 0.00 0.00 0.00 0.00
0.00 0.00 0.00 0.00 0.00 0.00 0.00 0.00 0.00 0.00 0.00 0.00 0.00 0.00 0.00 0.00 0.00 0.00 0.00 0.00 0.00 0.00 0.00 0.00 0.00 0.00 0.00 0.00 0.00 0.00 0.00 0.00 0.00 0.00 0.00 0.00 0.00 0.00 0.00 0.00 0.00 0.00 0.00
0.00 0.00 0.00 0.00 0.00 0.00 0.00 0.00 0.00 0.00 0.00 0.00 0.00 0.00 0.00 0.00 0.00 0.00 0.00 0.00 0.00 0.00 0.00 0.00 0.00 0.00 0.00 0.00 0.00 0.00 0.00 0.00 0.00 0.00 0.00 0.00 0.00 0.00 0.00 0.00 0.00 0.00 0.00
0.00 0.00 0.00 0.00 0.00 0.00 0.00 0.00 0.00 0.00 0.00 0.00 0.00 0.00 0.00 0.00 0.00 0.00 0.00 0.00 0.00 0.00 0.00 0.00 0.00 0.00 0.00 0.00 0.00 0.00 0.00 0.00 0.00 0.00 0.00 0.00 0.00 0.00 0.00 0.00 0.00 0.00 0.00
0.00 0.00 0.00 0.00 0.00 0.00 0.00 0.00 0.00 0.00 0.00 0.00 0.00 0.00 0.00 0.00 0.00 0.00 0.00 0.00 0.00 0.00 0.00 0.00 0.00 0.00 0.00 0.00 0.00 0.00 0.00 0.00 0.00 0.00 0.00 0.00 0.00 0.00 0.00 0.00 0.00 0.00 0.00
0.00 0.00 0.00 0.00 0.00 0.00 0.00 0.00 0.00 0.00 0.00 0.00 0.00 0.00 0.00 0.00 0.00 0.00 0.00 0.00 0.00 0.00 0.00 0.00 0.00 0.00 0.00 0.00 0.00 0.00 0.00 0.00 0.00 0.00 0.00 0.00 0.00 0.00 0.00 0.00 0.00 0.00 0.00
0.00 0.00 0.00 0.00 0.00 0.00 0.00 0.00 0.00 0.00 0.00 0.00 0.00 0.00 0.00 0.00 0.00 0.00 0.00 0.00 0.00 0.00 0.00 0.00 0.00 0.00 0.00 0.00 0.00 0.00 0.00 0.00 0.00 0.00 0.00 0.00 0.00 0.00 0.00 0.00 0.00 0.00 0.00
0.00 0.00 0.00 0.00 0.00 0.00 0.00 0.00 0.00 0.00 0.00 0.00 0.00 0.00 0.00 0.00 0.00 0.00 0.00 0.00 0.00 0.00 0.00 0.00 0.00 0.00 0.00 0.00 0.00 0.00 0.00 0.00 0.00 0.00 0.00 0.00 0.00 0.00 0.00 0.00 0.00 0.00 0.00
0.00 0.00 0.00 0.00 0.00 0.00 0.00 0.00 0.00 0.00 0.00 0.00 0.00 0.00 0.00 0.00 0.00 0.00 0.00 0.00 0.00 0.00 0.00 0.00 0.00 0.00 0.00 0.00 0.00 0.00 0.00 0.00 0.00 0.00 0.00 0.00 0.00 0.00 0.00 0.00 0.00 0.00 0.00
0.00 0.00 0.00 0.00 0.00 0.00 0.00 0.00 0.00 0.00 0.00 0.00 0.00 0.00 0.00 0.00 0.00 0.00 0.00 0.00 0.00 0.00 0.00 0.00 0.00 0.00 0.00 0.00 0.00 0.00 0.00 0.00 0.00 0.00 0.00 0.00 0.00 0.00 0.00 0.00 0.00 0.00 0.00
0.00 0.00 0.00 0.00 0.00 0.00 0.00 0.00 0.00 0.00 0.00 0.00 0.00 0.00 0.00 0.00 0.00 0.00 0.00 0.00 0.00 0.00 0.00 0.00 0.00 0.00 0.00 0.00 0.00 0.00 0.00 0.00 0.00 0.00 0.00 0.00 0.00 0.00 0.00 0.00 0.00 0.00 0.00
0.00 0.00 0.00 0.00 0.00 0.00 0.00 0.00 0.00 0.00 0.00 0.00 0.00 0.00 0.00 0.00 0.00 0.00 0.00 0.00 0.00 0.00 0.00 0.00 0.00 0.00 0.00 0.00 0.00 0.00 0.00 0.00 0.00 0.00 0.00 0.00 0.00 0.00 0.00 0.00 0.00 0.00 0.00
0.00 0.00 0.00 0.00 0.00 0.00 0.00 0.00 0.00 0.00 0.00 0.00 0.00 0.00 0.00 0.00 0.00 0.00 0.00 0.00 0.00 0.00 0.00 0.00 0.00 0.00 0.00 0.00 0.00 0.00 0.00 0.00 0.00 0.00 0.00 0.00 0.00 0.00 0.00 0.00 0.00 0.00 0.00
0.00 0.00 0.00 0.00 0.00 0.00 0.00 0.00 0.00 0.00 0.00 0.00 0.00 0.00 0.00 0.00 0.00 0.00 0.00 0.00 0.00 0.00 0.00 0.00 0.00 0.00 0.00 0.00 0.00 0.00 0.00 0.00 0.00 0.00 0.00 0.00 0.00 0.00 0.00 0.00 0.00 0.00 0.00
0.00 0.00 0.00 0.00 0.00 0.00 0.00 0.00 0.00 0.00 0.00 0.00 0.00 0.00 0.00 0.00 0.00 0.00 0.00 0.00 0.00 0.00 0.00 0.00 0.00 0.00 0.00 0.00 0.00 0.00 0.00 0.00 0.00 0.00 0.00 0.00 0.00 0.00 0.00 0.00 0.00 0.00 0.00
0.00 0.00 0.00 0.00 0.00 0.00 0.00 0.00 0.00 0.00 0.00 0.00 0.00 0.00 0.00 0.00 0.00 0.00 0.00 0.00 0.00 0.00 0.00 0.00 0.00 0.00 0.00 0.00 0.00 0.00 0.00 0.00 0.00 0.00 0.00 0.00 0.00 0.00 0.00 0.00 0.00 0.00 0.00
0.00 0.00 0.00 0.00 0.00 0.00 0.00 0.00 0.00 0.00 0.00 0.00 0.00 0.00 0.00 0.00 0.00 0.00 0.00 0.00 0.00 0.00 0.00 0.00 0.00 0.00 0.00 0.00 0.00 0.00 0.00 0.00 0.00 0.00 0.00 0.00 0.00 0.00 0.00 0.00 0.00 0.00 0.00
MSLP
1011.44 1012.08 1013.28 1013.69 1014.09 1014.54 1014.88 1015.15 1015.38 1015.60 1015.82 1016.06 1016.31 1016.50 1016.64 1016.71 1016.81 1016.88 1016.86 1016.96 1017.11 1017.21 1017.36 1017.39 1017.34 1017.56 1017.69 1017.78 1017.89 1017.96 1018.00 1018.01 1017.86 1017.62 1017.39 1017.38 1017.43 1017.65 1017.50 1017.46 1017.15 1017.28 1017.49
1011.25 1012.06 1013.38 1013.71 1014.14 1014.47 1014.88 1015.23 1015.47 1015.65 1015.83 1016.05 1016.24 1016.46 1016.62 1016.78 1016.86 1016.99 1017.06 1017.18 1017.39 1017.52 1017.76 1017.81 1017.88 1018.08 1018.15 1018.22 1018.23 1018.25 1018.25 1018.32 1018.16 1017.95 1017.77 1017.50 1017.72 1017.86 1017.89 1017.85 1017.67 1017.74 1017.67
1011.41 1011.92 1013.25 1013.71 1014.10 1014.56 1014.94 1015.20 1015.55 1015.81 1015.93 1016.03 1016.25 1016.49 1016.68 1016.88 1017.01 1017.10 1017.26 1017.38 1017.62 1017.72 1018.02 1018.09 1018.19 1018.43 1018.50 1018.62 1018.56 1018.62 1018.56 1018.55 1018.58 1018.24 1017.71 1017.24 1017.78 1017.93 1018.19 1018.12 1018.17 1018.11 1017.99
1011.53 1012.04 1012.99 1013.67 1014.07 1014.51 1014.92 1015.32 1015.55 1015.78 1015.95 1016.11 1016.33 1016.51 1016.73 1016.95 1017.10 1017.25 1017.50 1017.47 1017.70 1017.92 1018.08 1018.24 1018.42 1018.57 1018.70 1018.78 1018.75 1018.93 1018.90 1018.74 1018.74 1018.34 1017.73 1017.42 1017.34 1018.08 1018.30 1018.36 1018.38 1018.39 1018.35
1011.67 1012.06 1012.81 1013.76 1014.09 1014.37 1014.82 1015.15 1015.46 1015.76 1015.91 1016.06 1016.30 1016.57 1016.82 1017.03 1017.30 1017.52 1017.62 1017.75 1017.79 1018.05 1018.26 1018.35 1018.53 1018.67 1018.80 1018.94 1018.94 1019.09 1019.00 1018.96 1018.83 1018.37 1018.05 1017.94 1017.52 1018.24 1018.49 1018.60 1018.55 1018.60 1018.60
1011.70 1012.10 1012.86 1013.54 1014.06 1014.39 1014.74 1015.01 1015.32 1015.61 1015.86 1016.02 1016.27 1016.53 1016.80 1017.09 1017.39 1017.63 1017.89 1017.94 1017.99 1018.27 1018.42 1018.55 1018.72 1018.96 1019.12 1019.22 1019.15 1019.28 1019.18 1019.10 1018.85 1018.37 1018.26 1018.26 1018.10 1018.57 1018.79 1018.82 1018.78 1018.92 1018.82
1011.84 1012.23 1012.82 1013.49 1013.85 1014.18 1014.53 1014.89 1015.17 1015.46 1015.72 1015.92 1016.23 1016.50 1016.73 1016.92 1017.33 1017.90 1018.14 1018.19 1018.34 1018.48 1018.69 1018.81 1019.00 1019.27 1019.37 1019.43 1019.65 1019.73 1019.64 1019.36 1018.67 1018.70 1018.73 1018.47 1018.95 1019.02 1019.16 1019.18 1019.14 1019.05 1019.06
1011.64 1012.21 1012.58 1013.54 1013.91 1014.06 1014.31 1014.60 1014.90 1015.20 1015.50 1015.80 1016.15 1016.55 1016.74 1016.92 1017.31 1017.95 1018.20 1018.40 1018.55 1018.71 1018.83 1019.02 1019.34 1019.49 1019.63 1019.72 1019.90 1019.92 1019.90 1019.61 1018.97 1019.13 1019.12 1019.22 1019.55 1019.40 1019.49 1019.42 1019.49 1019.37 1019.29
1011.40 1012.11 1012.52 1013.00 1013.67 1014.04 1014.22 1014.45 1014.71 1014.99 1015.19 1015.55 1015.93 1016.25 1016.49 1016.84 1017.43 1017.99 1018.31 1018.50 1018.70 1018.85 1019.01 1019.28 1019.52 1019.71 1019.88 1020.06 1020.09 1020.13 1020.07 1019.78 1019.32 1019.57 1019.24 1019.38 1019.97 1019.71 1019.66 1019.60 1019.68 1019.58 1019.63
1011.40 1011.77 1012.14 1012.48 1013.05 1013.49 1013.84 1014.27 1014.45 1014.67 1015.03 1015.37 1015.68 1015.98 1016.41 1016.80 1017.44 1017.89 1018.26 1018.51 1018.74 1018.90 1019.16 1019.43 1019.71 1019.92 1020.11 1020.42 1020.39 1020.51 1020.38 1020.13 1019.79 1019.74 1019.75 1020.28 1020.15 1019.92 1019.89 1019.90 1019.81 1019.78 1019.82
1011.14 1011.44 1011.81 1012.17 1012.46 1012.91 1013.32 1013.85 1014.50 1014.68 1014.90 1015.21 1015.59 1015.91 1016.37 1016.71 1017.25 1017.67 1018.03 1018.29 1018.60 1018.88 1019.29 1019.56 1019.87 1020.17 1020.46 1020.63 1020.73 1020.58 1020.45 1020.07 1020.06 1020.05 1020.09 1020.78 1020.44 1020.10 1020.11 1020.12 1020.03 1019.98 1019.88
1010.76 1011.05 1011.40 1011.78 1011.99 1012.29 1012.66 1013.10 1013.94 1014.39 1014.72 1014.92 1015.14 1015.62 1015.83 1016.37 1016.70 1017.17 1017.68 1018.32 1018.65 1018.97 1019.39 1019.69 1019.91 1020.32 1020.47 1020.07 1020.49 1020.56 1020.15 1020.32 1020.26 1020.35 1020.74 1020.94 1020.49 1020.28 1020.22 1020.22 1020.15 1020.11 1020.02
1009.93 1010.60 1011.25 1011.37 1011.57 1011.87 1012.05 1012.38 1012.87 1013.67 1014.12 1014.26 1014.59 1014.98 1015.56 1016.03 1016.48 1017.09 1017.55 1018.16 1018.52 1019.02 1019.36 1019.71 1020.26 1020.13 1019.96 1019.96 1020.20 1020.32 1020.52 1020.39 1020.38 1020.55 1021.14 1021.16 1020.65 1020.32 1020.18 1020.17 1020.16 1020.16 1020.17
1009.09 1009.35 1010.07 1010.81 1011.21 1011.43 1011.82 1012.19 1012.42 1012.78 1013.44 1013.66 1013.84 1014.45 1015.34 1015.73 1016.31 1016.84 1017.10 1017.58 1017.98 1018.56 1018.83 1019.31 1019.74 1019.85 1020.16 1020.28 1020.37 1020.44 1020.47 1020.36 1020.44 1020.65 1021.04 1021.18 1020.98 1020.50 1020.25 1020.30 1020.27 1020.24 1020.22
1008.37 1008.42 1008.82 1009.74 1010.37 1010.87 1011.34 1011.40 1011.87 1012.09 1012.49 1012.94 1013.34 1013.89 1014.70 1015.27 1015.98 1016.47 1016.78 1017.06 1017.48 1018.14 1018.56 1019.13 1019.53 1019.94 1020.12 1020.30 1020.45 1020.58 1020.68 1020.75 1020.83 1020.76 1020.91 1021.22 1021.03 1020.55 1020.45 1020.42 1020.33 1020.28 1020.34
1007.65 1008.03 1008.61 1009.13 1009.83 1010.41 1010.73 1011.15 1011.26 1011.52 1011.86 1012.44 1012.88 1013.56 1014.34 1014.86 1015.34 1015.79 1016.38 1016.82 1017.34 1017.79 1018.31 1018.86 1019.32 1019.66 1019.94 1020.27 1020.55 1020.73 1020.93 1021.05 1021.15 1021.14 1020.98 1021.17 1021.20 1020.93 1020.68 1020.66 1020.61 1020.48 1020.72
1006.96 1007.59 1008.03 1008.50 1009.20 1009.70 1010.06 1010.61 1010.97 1011.14 1011.58 1012.01 1012.56 1013.18 1014.02 1014.61 1014.97 1015.46 1015.96 1016.47 1017.06 1017.81 1018.36 1018.70 1019.06 1019.46 1019.87 1020.28 1020.65 1021.03 1021.21 1021.30 1021.25 1021.28 1021.25 1021.14 1021.33 1021.48 1021.23 1020.90 1020.94 1020.94 1021.15
1006.62 1006.94 1007.55 1008.32 1008.80 1009.28 1009.60 1009.90 1010.41 1010.71 1011.29 1011.70 1012.26 1012.88 1013.68 1014.42 1014.80 1015.19 1015.58 1016.08 1016.53 1017.35 1018.00 1018.39 1018.83 1019.31 1019.72 1020.17 1020.58 1020.95 1021.18 1021.38 1021.48 1021.41 1021.37 1021.21 1021.29 1021.46 1021.88 1021.90 1021.86 1021.84 1021.81
1006.86 1006.95 1006.94 1007.52 1008.35 1009.02 1009.51 1009.85 1010.17 1010.54 1010.85 1011.26 1011.78 1012.43 1013.01 1013.76 1014.42 1015.02 1015.48 1015.92 1016.41 1017.09 1017.51 1017.90 1018.38 1018.75 1019.23 1019.80 1020.25 1020.67 1020.96 1021.32 1021.56 1021.46 1021.52 1021.56 1021.93 1021.83 1022.07 1022.68 1022.73 1022.63 1022.43
1007.83 1007.68 1007.50 1007.65 1008.11 1008.89 1009.43 1009.80 1010.04 1010.30 1010.76 1011.18 1011.56 1012.00 1012.69 1013.48 1014.19 1014.67 1015.20 1015.82 1016.57 1017.22 1017.50 1017.81 1018.21 1018.64 1018.94 1019.38 1019.93 1020.62 1021.00 1021.16 1021.44 1021.51 1021.73 1022.05 1022.27 1022.33 1022.40 1022.61 1022.78 1022.86 1022.66
1009.28 1009.10 1008.63 1008.27 1008.16 1008.82 1009.33 1009.68 1010.02 1010.18 1010.55 1010.96 1011.41 1011.91 1012.54 1013.19 1013.77 1014.28 1014.68 1015.25 1016.17 1016.87 1017.36 1017.71 1018.03 1018.52 1018.94 1019.46 1020.15 1020.79 1021.05 1021.19 1021.22 1021.21 1021.44 1021.81 1022.35 1022.66 1022.85 1022.90 1023.00 1022.86 1022.77
1010.82 1010.43 1009.76 1009.21 1009.10 1009.15 1009.63 1009.94 1010.13 1010.16 1010.43 1010.95 1011.44 1011.72 1012.18 1012.85 1013.55 1014.06 1014.34 1014.54 1015.21 1016.17 1016.99 1017.50 1017.92 1018.44 1018.81 1019.10 1019.17 1019.82 1020.55 1021.25 1021.17 1021.10 1021.24 1021.50 1021.95 1022.43 1022.77 1022.95 1023.10 1023.16 1022.82
1011.73 1011.62 1011.26 1010.77 1010.16 1009.99 1010.19 1010.54 1010.79 1011.12 1011.34 1011.27 1011.64 1011.93 1012.43 1012.85 1013.27 1013.66 1014.00 1014.32 1014.71 1014.99 1015.34 1016.17 1017.05 1017.66 1017.93 1018.65 1018.28 1018.25 1019.24 1019.35 1020.31 1020.96 1021.32 1021.49 1021.66 1021.93 1022.13 1022.56 1022.88 1023.08 1022.94
1013.16 1012.90 1012.17 1011.84 1011.60 1011.24 1011.12 1011.11 1011.25 1011.50 1011.58 1011.41 1011.84 1012.24 1012.59 1012.98 1013.33 1013.62 1013.93 1013.91 1013.97 1014.33 1014.99 1015.59 1016.12 1016.64 1017.22 1017.76 1018.46 1017.91 1018.37 1018.39 1018.99 1020.57 1021.14 1021.46 1021.73 1021.75 1021.86 1022.28 1022.62 1022.82 1022.77
1014.10 1013.86 1013.11 1012.83 1012.25 1012.03 1012.29 1012.07 1012.05 1012.17 1012.19 1011.77 1011.72 1012.30 1012.68 1013.14 1013.39 1013.28 1013.59 1013.83 1014.07 1014.24 1014.08 1014.34 1015.01 1015.56 1016.24 1017.02 1017.33 1017.66 1018.17 1018.28 1018.17 1018.29 1019.81 1020.72 1021.34 1021.37 1021.57 1021.85 1022.34 1022.80 1022.92
1014.91 1014.84 1014.35 1013.92 1013.41 1013.16 1012.89 1012.70 1012.92 1013.17 1012.82 1012.55 1012.53 1012.64 1012.54 1012.78 1013.03 1013.20 1013.33 1013.60 1013.72 1013.98 1014.21 1014.25 1014.45 1014.78 1014.88 1015.08 1016.19 1017.30 1017.33 1017.38 1017.36 1017.34 1017.68 1019.27 1019.87 1020.45 1020.88 1021.48 1021.87 1022.22 1022.64
Thickness
5745 5740 5731 5726 5720 5716 5713 5711 5710 5709 5708 5708 5707 5706 5705 5705 5705 5707 5706 5706 5707 5707 5707 5708 5710 5709 5708 5709 5711 5711 5713 5714 5716 5719 5720 5720 5721 5719 5721 5723 5726 5725 5725
5749 5741 5731 5727 5722 5718 5714 5711 5710 5709 5708 5707 5707 5706 5706 5706 5705 5706 5706 5704 5703 5704 5703 5704 5704 5703 5704 5705 5707 5708 5709 5710 5713 5716 5717 5719 5718 5717 5717 5719 5722 5721 5723
5747 5742 5731 5727 5724 5719 5715 5713 5710 5708 5707 5707 5706 5705 5705 5704 5704 5704 5703 5703 5702 5702 5701 5701 5701 5700 5701 5701 5703 5704 5705 5706 5708 5712 5717 5719 5716 5715 5713 5715 5715 5716 5718
5746 5741 5733 5728 5724 5720 5716 5713 5710 5709 5707 5707 5706 5705 5704 5702 5702 5702 5701 5702 5701 5701 5700 5700 5699 5699 5699 5700 5700 5700 5700 5703 5705 5709 5713 5716 5716 5712 5710 5711 5711 5712 5714
5744 5740 5734 5727 5723 5720 5717 5714 5712 5709 5708 5707 5705 5704 5703 5702 5700 5699 5700 5699 5700 5699 5698 5698 5698 5698 5698 5698 5698 5698 5699 5700 5701 5705 5708 5710 5713 5709 5707 5706 5708 5709 5710
5743 5739 5733 5727 5723 5720 5717 5714 5712 5710 5708 5707 5705 5704 5702 5700 5698 5698 5696 5697 5697 5696 5695 5695 5695 5695 5694 5695 5696 5695 5697 5698 5700 5703 5704 5705 5707 5705 5703 5703 5705 5704 5706
5742 5738 5732 5727 5723 5720 5718 5715 5712 5710 5708 5706 5704 5703 5702 5701 5698 5694 5694 5694 5694 5694 5693 5693 5693 5692 5692 5693 5691 5691 5693 5695 5699 5699 5699 5702 5699 5700 5699 5700 5701 5703 5704
5743 5737 5734 5726 5722 5720 5718 5715 5713 5711 5708 5706 5703 5700 5700 5699 5696 5692 5691 5690 5690 5690 5690 5690 5689 5689 5689 5689 5689 5689 5690 5692 5695 5694 5695 5695 5694 5696 5695 5696 5696 5698 5701
5742 5736 5732 5728 5723 5720 5717 5715 5713 5710 5709 5706 5703 5701 5700 5698 5693 5690 5688 5687 5687 5687 5686 5685 5684 5683 5683 5683 5685 5685 5686 5688 5690 5689 5692 5692 5689 5691 5691 5693 5693 5695 5696
5742 5738 5734 5730 5725 5721 5718 5715 5714 5712 5708 5705 5703 5701 5698 5696 5691 5689 5686 5685 5683 5683 5682 5681 5680 5679 5679 5677 5679 5679 5681 5681 5683 5685 5685 5683 5685 5687 5688 5689 5690 5692 5692
5739 5738 5734 5730 5726 5722 5718 5714 5710 5709 5707 5704 5701 5699 5696 5693 5689 5686 5684 5683 5681 5680 5677 5676 5674 5673 5673 5673 5674 5676 5677 5678 5678 5679 5679 5677 5680 5683 5683 5684 5686 5687 5688
5732 5733 5732 5729 5726 5723 5720 5717 5710 5706 5704 5702 5700 5697 5695 5692 5689 5686 5683 5678 5676 5675 5672 5671 5670 5668 5669 5671 5669 5670 5672 5671 5673 5673 5671 5671 5675 5677 5678 5679 5680 5682 5684
5734 5729 5726 5726 5725 5723 5721 5718 5715 5709 5706 5704 5701 5698 5693 5690 5687 5682 5679 5675 5672 5670 5667 5665 5663 5664 5665 5666 5665 5665 5664 5666 5666 5666 5665 5666 5669 5672 5673 5674 5675 5676 5677
5733 5733 5730 5725 5723 5721 5717 5714 5713 5711 5706 5704 5703 5698 5691 5688 5684 5680 5678 5674 5671 5667 5665 5662 5660 5660 5658 5658 5658 5659 5659 5660 5660 5659 5659 5660 5662 5665 5667 5667 5668 5669 5670
5734 5737 5736 5730 5726 5721 5717 5715 5711 5710 5707 5703 5701 5697 5690 5686 5682 5677 5674 5672 5669 5664 5661 5658 5656 5654 5653 5652 5651 5651 5651 5651 5651 5652 5652 5652 5654 5657 5658 5659 5660 5662 5662
5736 5733 5731 5728 5723 5719 5716 5712 5710 5708 5705 5701 5698 5692 5686 5683 5680 5676 5671 5668 5664 5661 5658 5654 5651 5649 5647 5646 5644 5643 5642 5641 5641 5642 5644 5644 5645 5647 5648 5648 5650 5652 5650
5736 5732 5729 5725 5720 5716 5714 5710 5706 5704 5700 5697 5692 5688 5682 5677 5674 5670 5667 5664 5659 5653 5650 5647 5645 5643 5640 5637 5635 5634 5633 5632 5633 5633 5633 5634 5634 5635 5637 5638 5638 5639 5638
5733 5730 5726 5719 5714 5710 5708 5706 5703 5700 5696 5693 5688 5683 5676 5670 5667 5664 5662 5658 5655 5649 5645 5642 5639 5636 5633 5630 5628 5625 5624 5624 5624 5625 5625 5627 5626 5625 5624 5624 5624 5625 5625
5722 5722 5722 5719 5711 5704 5699 5697 5695 5693 5692 5687 5683 5679 5675 5668 5661 5656 5653 5650 5647 5643 5641 5638 5635 5632 5629 5624 5622 5619 5617 5615 5615 5616 5616 5617 5615 5616 5615 5611 5611 5612 5613
5705 5708 5710 5709 5705 5697 5692 5687 5687 5685 5682 5677 5674 5672 5666 5660 5654 5650 5646 5641 5636 5632 5631 5629 5626 5623 5623 5621 5617 5611 5608 5607 5606 5607 5606 5604 5604 5604 5604 5603 5601 5601 5602
5683 5684 5689 5693 5695 5689 5684 5679 5675 5674 5672 5670 5666 5662 5657 5653 5648 5644 5642 5638 5631 5625 5620 5618 5617 5614 5612 5609 5604 5599 5597 5598 5600 5600 5598 5597 5594 5592 5591 5592 5591 5591 5592
5660 5664 5671 5676 5677 5677 5672 5670 5669 5668 5665 5660 5655 5653 5651 5645 5639 5636 5634 5634 5631 5622 5614 5610 5606 5603 5601 5601 5601 5596 5591 5587 5590 5591 5590 5591 5588 5584 5582 5581 5580 5580 5583
5647 5646 5649 5653 5657 5659 5657 5655 5654 5651 5650 5648 5644 5641 5639 5635 5632 5628 5625 5623 5622 5621 5621 5614 5607 5601 5597 5592 5596 5599 5594 5599 5586 5580 5579 5580 5579 5579 5578 5575 5573 5571 5573
5625 5627 5633 5634 5636 5639 5640 5641 5640 5638 5636 5638 5633 5630 5627 5624 5621 5618 5616 5615 5618 5615 5610 5607 5603 5600 5594 5588 5581 5589 5584 5588 5586 5569 5569 5568 5566 5568 5569 5567 5565 5564 5565
5608 5610 5616 5618 5623 5622 5620 5622 5621 5619 5620 5625 5624 5618 5614 5611 5609 5609 5607 5606 5606 5605 5605 5605 5600 5595 5589 5582 5580 5577 5573 5574 5579 5584 5566 5559 5557 5558 5560 5559 5556 5554 5554
5589 5588 5592 5597 5598 5601 5603 5604 5602 5598 5601 5603 5603 5602 5603 5599 5598 5597 5596 5593 5593 5594 5593 5592 5591 5588 5588 5588 5578 5566 5567 5568 5569 5574 5576 5560 5556 5554 5553 5550 5548 5547 5545